Regional Weather Roundup
Issued by NWS

Home | Current Version | Previous Version | Text Only | Print | Product List | Glossary On
Versions: 1 2 3 4 5 6 7 8 9 10 11 12 13 14 15 16 17 18 19 20 21 22 23 24 25 26 27 28 29 30 31 32 33 34 35 36 37 38 39 40 41 42 43 44 45 46 47 48 49 50
000
ASUS43 KMPX 191910
RWRMN
WEATHER ROUNDUP FOR MINNESOTA
NATIONAL WEATHER SERVICE TWIN CITIES/CHANHASSEN MN
100 PM CST MON FEB 19 2018


NOTE: "FAIR" INDICATES FEW OR NO CLOUDS BELOW 12,000 FEET WITH NO
SIGNIFICANT WEATHER AND/OR OBSTRUCTIONS TO VISIBILITY. N/A MEANS
CURRENT SKY AND/OR WEATHER CONDITIONS ARE NOT AVAILABLE.

MNZ060>063-068>070-192000-
   Twin Cities Metro

CITY           SKY/WX    TMP DP  RH WIND       PRES   REMARKS
TWIN CITIES    LGT SNOW  22  20  92 NE17      29.86F FOG     WCI   8
ST PAUL        LGT SNOW  23  19  85 NE15G25   29.89F VSB 3/4 WCI  10
CRYSTAL        LGT SNOW  21  17  84 N18G25    29.87F VSB 3/4 WCI   6
BLAINE         LGT SNOW  23  19  86 NE14G25   29.89F WCI  11
LAKEVILLE      LGT SNOW  21  21 100 NE15      29.83F WCI   8
EDEN PRAIRIE   LGT SNOW  21  17  84 NE16G24   29.84F FOG     WCI   7
SOUTH ST PAUL    N/A     24  20  86 N9G20     29.86F FOG     WCI  14
LAKE ELMO      LGT SNOW  23  21  93 N12G18    29.88F VSB 1   WCI  12
$$
MNZ001>005-007-008-013>017-022>024-027-028-192000-
   Northwest Minnesota

CITY           SKY/WX    TMP DP  RH WIND       PRES   REMARKS
BEMIDJI        FAIR       9   0  64 NE13      30.08F WCI  -6
HALLOCK        FAIR       5  -8  56 N12       30.26F WCI -11
ROSEAU         FAIR       7  -6  56 N9        30.24F WCI  -7
WARROAD        FAIR       7  -2  66 E5        30.24F WCI  -2
THIEF RVR FALL FAIR       9  -4  55 N13       30.20F WCI  -7
CROOKSTON      FAIR       9  -6  52 NE15      30.22F WCI  -8
FOSSTON        FAIR      10   1  67 N9        30.13F WCI  -2
DETROIT LAKES  FAIR      14   0  52 NE12      30.07F WCI   0
MOORHEAD       FAIR      10   1  67 N23       30.14F WCI -10
PARK RAPIDS    CLOUDY    11   0  61 NE16G26   30.03F WCI  -6
MAHNOMEN       FAIR       8   1  75 N18       30.10F WCI -11
$$
MNZ006-009>011-018-025>026-192000-
   North Central Minnesota

CITY           SKY/WX    TMP DP  RH WIND       PRES   REMARKS
BAUDETTE       FAIR       5  -4  66 NW10      30.19F WCI -10
FLAG ISLAND    FAIR       3  -9  55 N8        30.24S WCI -10
INTL FALLS     FAIR       9  -3  58 NE12      30.18F WCI  -6
WASKISH        PTSUNNY   10   0  61 NE9       30.15F WCI  -2
BIG FORK       FAIR      10   0  61 NE9G17    30.11F WCI  -2
LONGVILLE      FAIR      12   0  57 NE9G16    30.07R WCI   0
GRAND RAPIDS   PTSUNNY   10   0  63 N9        30.09S WCI  -3
CRANE LAKE     FAIR       9   0  66 NE8       30.17F WCI  -4
ORR            FAIR      10  -2  56 N3        30.09F
COOK             N/A      9   0  66 NE10      30.10F WCI  -6
WALKER         MOCLDY    10  -2  57 N10       30.07F WCI  -3
$$
MNZ012-019>021-037-192000-
   Northeast Minnesota

CITY           SKY/WX    TMP DP  RH WIND       PRES   REMARKS
DULUTH         LGT SNOW  13   7  77 NE14      30.03S VSB 3/4 WCI  -2
ELY            FAIR       9   0  66 NE10G17   30.08F WCI  -6
HIBBING        CLOUDY     9  -1  64 NE15G22   30.06F WCI  -8
EVELETH        FAIR     N/A N/A N/A NE13      30.07S
DULUTH HARBOR  LGT SNOW  18  14  86 NE26G33   30.08F VSB 3/4 WCI  -1
TWO HARBORS    LGT SNOW  18   9  68 NE12      30.05F WCI   5
GRAND MARAIS     N/A     14   1  56 N10G20    30.13F WCI   1
G MARAIS ARPRT CLOUDY     7  -4  61 N16       30.03F WCI -11
$$
MNZ029>031-032-039>041-046>048-054>057-064-192000-
   West Central Minnesota

CITY           SKY/WX    TMP DP  RH WIND       PRES   REMARKS
FERGUS FALLS   PTSUNNY   16   1  53 NE13G22   30.05S WCI   2
WHEATON        CLOUDY    16   3  57 N17       30.08S WCI   0
MORRIS         CLOUDY    16   9  73 N17       30.00S WCI   0
ALEXANDRIA     CLOUDY    13   6  74 NE20      29.98F WCI  -5
ELBOW LAKE     CLOUDY    13   4  67 E15G23    30.03S WCI  -3
WADENA         FAIR      12   1  62 NE15G22   30.01F WCI  -4
GLENWOOD       CLOUDY    12   9  85 NE17G25   29.97F WCI  -5
APPLETON       CLOUDY    18  10  73 N22       29.99F WCI   0
BENSON         CLOUDY    16   9  73 NE21G26   29.98F WCI  -2
ORTONVILLE     CLOUDY    12   7  79 N22       30.01F WCI  -7
MADISON        LGT SNOW  18  12  79 N18G24    29.98F WCI   2
WILLMAR        CLOUDY    16  10  79 N20G26    29.95S WCI  -1
$$
MNZ033>034-036-042>043-049>051-058-059-192000-
   Central Minnesota

CITY           SKY/WX    TMP DP  RH WIND       PRES   REMARKS
ST CLOUD       CLOUDY    15   9  76 N13G22    29.95F WCI   1
SAUK CENTRE    CLOUDY    13   7  78 N14G21    29.97F WCI  -2
PAYNESVILLE    CLOUDY    15  11  84 NE18G24   29.94F WCI  -2
AITKIN         LGT SNOW  10   3  72 NE12G20   30.02F WCI  -4
PINE RIVER     FAIR      12   1  62 NE12G20   30.08S WCI  -2
BRAINERD       LGT SNOW  13   3  64 NE15      30.03S WCI  -3
STAPLES        CLOUDY    12   3  67 N12       30.02S WCI  -2
LONG PRAIRIE   FAIR      14   9  79 N13G18    29.98F WCI   0
LITTLE FALLS   FLURRIES  14   3  62 N6        30.00F WCI   5
LITCHFIELD     MIX PCPN  19  16  86 NE20G26   29.91F WCI   4
BUFFALO        LGT SNOW  19  15  86 N14G22    29.91F VSB 3/4 WCI   5
MAPLE LAKE     LGT SNOW  20  16  86 N17       29.92F VSB 1   WCI   5
HUTCHINSON     LGT SNOW  20  16  86 N20G25    29.88F WCI   4
$$
MNZ037-044-045-052-053-192000-
   East Central Minnesota

CITY           SKY/WX    TMP DP  RH WIND       PRES   REMARKS
PRINCETON      LGT SNOW  18  12  79 N14G24    29.95S WCI   4
MORA           LGT SNOW  18  10  73 N12       29.99F WCI   5
CAMBRIDGE      LGT SNOW  19  10  68 N10G18    29.94F WCI   8
RUSH CITY      LGT SNOW  21  15  78 NE10G21   29.96F WCI   9
MOOSE LAKE     LGT SNOW  14  10  85 NE9       30.01S WCI   2
HINCKLEY       FLURRIES  18  14  86 N14       29.98F WCI   4
CLOQUET        LGT SNOW  12   7  79 N8        30.03F WCI   1
MCGREGOR       CLOUDY    14   7  73 N10G17    30.04S WCI   1
$$
MNZ071>073-080-081-089-090-097-098-192000-
   Southwest Minnesota

CITY           SKY/WX    TMP DP  RH WIND       PRES   REMARKS
MONTEVIDEO     CLOUDY    16  10  79 NE20      29.95F WCI  -1
GRANITE FALLS  LGT SNOW  18  14  82 N16G22    29.94F WCI   4
CANBY          LGT SNOW  16  11  83 N20G25    29.96F WCI  -1
MARSHALL       FLURRIES  16  12  84 N18       29.91F WCI   0
REDWOOD FALLS  LGT SNOW  18  13  80 N13G26    29.89F WCI   5
OLIVIA         CLOUDY    21  14  73 N20       29.90F WCI   6
PIPESTONE      LGT SNOW  14  10  85 NE20G30   29.83F WCI  -3
WINDOM         CLOUDY    18   3  53 N20       29.81F HAZE    WCI   1
WORTHINGTON    LGT SNOW  16  12  84 N21G28    29.81F FOG     WCI  -1
JACKSON        CLOUDY    18  14  86 N18       29.79F WCI   2
TRACY          LGT SNOW  18  15  89 N21G26    29.88F WCI   1
SLAYTON        LGT SNOW  15  13  90 N21G26    29.84F WCI  -2
$$
MNZ065>067-074>077-082>085-091>093-192000-
   South Central Minnesota

CITY           SKY/WX    TMP DP  RH WIND       PRES   REMARKS
MANKATO        MIX PCPN  21  19  92 N16G25    29.82R FOG     WCI   7
NEW ULM        CLOUDY    19  14  79 NE13G18   29.86R WCI   7
ST JAMES       CLOUDY    19  18  93 N20       29.84F WCI   4
FAIRMONT       MIX PCPN  21  19  92 MISG      29.78F FOG
GLENCOE        MIX PCPN  21  18  88 N13G23    29.87S WCI   8
FARIBAULT      LGT SNOW  25  21  86 N16G22    29.79F WCI  12
OWATONNA       MIX PCPN  25  23  93 NE13      29.76F WCI  13
WASECA         CLOUDY    25  23  93 N16G22    29.78F FOG     WCI  12
ALBERT LEA     CLOUDY    28  27  93 NE10      29.73S FOG     WCI  19
$$
MNZ078>079-086>088-094>096-192000-
   Southeast Minnesota

CITY           SKY/WX    TMP DP  RH WIND       PRES   REMARKS
ROCHESTER      FRZ RAIN  28  28 100 NE15G25   29.74S FOG     WCI  16
RED WING       LGT SNOW  27  19  74 NE10G20   29.83F WCI  17
STANTON        LGT SNOW  25  22  87 NE17      29.80F WCI  12
DODGE CENTER   MIX PCPN  25  25 100 NE15G21   29.74F WCI  12
WINONA         CLOUDY    32  30  93 NE6       29.77F WCI  26
AUSTIN         MIX PCPN  30  27  86 NE8       29.70F WCI  23
PRESTON        CLOUDY    31  30  95 NE13G18   29.71F FOG     WCI  21
$$
ABBREVIATIONS USED IN REMARKS
   TC - TEMPERATURES IN CELSIUS
  WCI - WIND CHILL INDEX
   HX - HEAT INDEX
  VSB - VISIBILITY
$$




USA.gov is the U.S. government's official web portal to all federal, state and local government web resources and services.